Showing default

YUNYAO-1 18, 58758

Orbit data source: Space-Track

YUNYAO-1 18, 58758 is a payload satellite owned by Yunyao yuhang (CN) in LEO that was launched on Thu, 11 Jan 2024 UTC via a YINLI-1 launch vehicle from the Yellow Sea Launch Area, China (YSLA). Payload-class satellites include a variety of spacecraft equipped with specific instruments for various scientific and technological missions. These include communications satellites like Starlink; space stations such as the ISS; scientific satellites like the Hubble; Earth observation satellites from companies like Planet Labs, Umbra, and HawkEye 360; GPS; miniature CubeSats for education and research; and military/defense satellites.

Loading next visibility...
Identifier
58758, 2024-009A
Orbit
LEO
Country
Flag of CNCN / PRC
Related business
Manufacturer
Changguang WJ
Mission
Operational Commercial Meteo Radio Occ.
Bus & Motor
YY-1, Unknown motor
Mass
~500 kg wet, ~500 kg dry
Launch date (UTC)
2024-01-11 (2 years ago)
Launch vehicle
YINLI-1
Launch site
Yellow Sea Launch Area, China (YSLA)
Object type
Payload
Rocket body
Debris
Shape & HBR
Box + 1 Pan, 2.5 m
Radar Cross Section
5.339 m², Medium (>0.1 m² and < 1m²)

Expand to show TLE details & history
Last TLE update: 16 hours ago

TLE from 16 hours ago
0 YUNYAO-1 18
1 58758U 24009A   25348.94805156  .00008707  00000-0  43548-3 0  9997
2 58758  49.9934 339.0376 0004477 270.2865  89.7574 15.18110099106806
Epoch: 2025-12-14T22:45Z
TLE epoch observation values (Epoch: 2025-12-14T22:45:11.654Z)
Latitude
-0.00009°
Longitude
-86.11468°
Altitude
512.093 km
Speed
7.609 km/s
True Right ascension
22h 36m 09s
True Declination
0° 00' 00"
Sunlit
Object was in daylight at epoch
Visualization orbit readout
Latitude
Unknown
Longitude
Unknown
Altitude
Unknown
Speed
Unknown
Apparent Right ascension
Unknown
Apparent Declination
Unknown
Sunlit
N/A
Visualization observer readout
Local Sidereal Time
13:25:37
Azimuth
Unknown
Elevation
Unknown
Doppler factor
Unknown
Orbital elements
Apogee altitude
515.408 km
Perigee altitude
509.239 km
Semi-major axis
6,890.461 km
Eccentricity
0.00045
Inclination
49.9934°
RAAN
339.0376°
Arg. of periapsis
270.2865°
True anomaly
89.8087°
Mean anomaly
89.7574°
Eccentric anomaly
89.78305°
Mean motion
3.79464 °/min
Orbital period
94.87 mins
BSTAR
0.00043548
Loading maneuver chart data...
Computing Atmospheric mass density...
Loading historical data...
Loading historical data...
Loading historical data...
Loading historical data...
Loading historical data...
Loading historical data...
Loading historical data...
Other satellites on launch #9 in the year 2024 (2024-01-11 UTC)

Documentation

Showing up to 5 results
|